sat.trackr.live / text

‹ back to catalog

PRAETORIAN SDA_601

NORAD 65585 · 2025-203W

PAYLOAD ACTIVE UNKNOWN

§ Identity

Operator
Country
US
Launch date
2025-09-10
Launch site
AFWTR
Launch vehicle
Mass (kg)
RCS (m²)

Purposes: military

External: N2YO · Heavens-Above · Gunter

§ Orbital elements

Epoch: 2026-09-19T09:16:10.123392Z

Period
104.11 min
Inclination
81.3012°
Eccentricity
0.0004707
Mean motion
13.83175651 rev/d
Perigee alt
949.2 km
Apogee alt
956.1 km
Semi-major
7,330.8 km
B*
3.2442e-4
RAAN
283.9434°
Arg perigee
318.7093°
Mean anomaly
41.3707°
Rev number
5,170

§ Raw data

PRAETORIAN SDA_6011 65585U 25203W   26262.38622828  .00000367  00000+0  32442-3 0  99912 65585  81.3012 283.9434 0004707 318.7093  41.3707 13.83175651 51703

JSON: /api/v1/satellites/65585 · /tle

For live sub-satellite position, see the globe view (requires WebGL).

§ Visibility from observer

Set your observer location to see the next 7 days of passes ≥ 10°. The values pass through the URL so the page stays shareable.

No JS? Fill the form by hand. The geolocation button needs JavaScript.